This demonstration page uses our WeatherBlox Daily Observations layout. Learn more.

Left ArrowRight Arrow

Hourly Observations for April 27, 2022

Temp ( °F °C ) Dew Point ( °F °C ) Humidity (%) Winds ( mph kmh ) Pressure ( in mb ) Visibility ( mi km ) Precip ( " mm )
12:52 am 00:52 Clear 49 9.4 32 0 52 52 S 5 7 30.27 1025 10 16 0.00 0.00
1:52 am 01:52 Clear 46 7.8 33 0.6 61 61 SSE 6 9 30.26 1025 10 16 0.00 0.00
2:52 am 02:52 Clear 45 7.2 32 0 61 61 SSE 7 11 30.25 1024 10 16 0.00 0.00
3:52 am 03:52 Clear 45 7.2 33 0.6 63 63 SSE 9 15 30.24 1024 10 16 0.00 0.00
4:52 am 04:52 Clear 46 7.8 33 0.6 61 61 SSE 10 17 30.24 1024 10 16 0.00 0.00
5:52 am 05:52 Clear 46 7.8 32 0 58 58 SSE 9 15 30.24 1024 10 16 0.00 0.00
6:52 am 06:52 Sunny 46 7.8 32 0 58 58 SSE 10 17 30.24 1024 10 16 0.00 0.00
7:52 am 07:52 Sunny 51 10.6 34 1.1 52 52 S 12 19 30.25 1024 10 16 0.00 0.00
8:52 am 08:52 Sunny 57 13.9 34 1.1 42 42 S 15 24 30.25 1024 10 16 0.00 0.00
9:52 am 09:52 Sunny 61 16.1 33 0.6 35 35 SSE 16 26 30.24 1024 10 16 0.00 0.00
10:52 am 10:52 Sunny 63 17.2 33 0.6 33 33 SSE 16 26 30.22 1023 10 16 0.00 0.00
11:52 am 11:52 Sunny 65 18.3 35 1.7 33 33 SSE 18 30 30.20 1023 10 16 0.00 0.00
12:52 pm 12:52 Sunny 68 20 40 4.4 36 36 S 13 20 30.17 1022 10 16 0.00 0.00
1:52 pm 13:52 Sunny 70 21.1 38 3.3 31 31 SSE 14 22 30.14 1021 10 16 0.00 0.00
2:52 pm 14:52 Sunny 71 21.7 38 3.3 30 30 SSW 14 22 30.11 1020 10 16 0.00 0.00
3:52 pm 15:52 Sunny 72 22.2 38 3.3 29 29 SSE 16 26 30.07 1018 10 16 0.00 0.00
4:52 pm 16:52 Sunny 73 22.8 37 2.8 27 27 SSE 16 26 30.05 1018 10 16 0.00 0.00
5:52 pm 17:52 Sunny 72 22.2 36 2.2 27 27 S 12 19 30.04 1017 10 16 0.00 0.00
6:52 pm 18:52 Sunny 69 20.6 35 1.7 29 29 SSE 15 24 30.02 1017 10 16 0.00 0.00
7:52 pm 19:52 Sunny 67 19.4 34 1.1 30 30 SSE 12 19 30.01 1016 10 16 0.00 0.00
8:52 pm 20:52 Clear 65 18.3 34 1.1 32 32 SSE 13 20 30.01 1016 10 16 0.00 0.00
9:52 pm 21:52 Clear 64 17.8 33 0.6 32 32 SSE 14 22 30.04 1017 10 16 0.00 0.00
10:52 pm 22:52 Clear 61 16.1 35 1.7 38 38 SSE 13 20 30.05 1018 10 16 0.00 0.00
11:52 pm 23:52 Mostly Cloudy 61 16.1 36 2.2 39 39 SSE 12 19 30.05 1018 10 16 0.00 0.00

Powered by AerisWeather